This is the latest recevied weather packets stored in our database for station/object WX7FGZ-7. If no packets are shown the sender has not sent any weather packets the latest 10 day(s).
| Time | Temp. | Humidity | Pressure | Rain* | Wind** | Luminosity | Snow |
|---|---|---|---|---|---|---|---|
| 1777535226 | 12.78° C | 30% | 1016.7 hPa | 0 mm | - | - | - |
| 1777534630 | 12.22° C | 29% | 1016.7 hPa | 0 mm | - | - | - |
| 1777534027 | 12.22° C | 29% | 1016.8 hPa | 0 mm | - | - | - |
| 1777533780 | 11.67° C | 29% | 1016.9 hPa | 0 mm | - | - | - |
| 1777533728 | 11.67° C | 29% | 1016.9 hPa | 0 mm | - | - | - |
| 1777533573 | 11.11° C | 30% | 1017 hPa | 0 mm | - | - | - |
| 1777533429 | 11.67° C | 29% | 1016.9 hPa | 0 mm | - | - | - |
| 1777533192 | 11.11° C | 30% | 1017.1 hPa | 0 mm | - | - | - |
| 1777533164 | 11.11° C | 30% | 1017 hPa | 0 mm | - | - | - |
| 1777533126 | 11.11° C | 30% | 1017 hPa | 0 mm | - | - | - |
| 1777532826 | 11.11° C | 30% | 1017.1 hPa | 0 mm | - | - | - |
| 1777532529 | 11.11° C | 30% | 1017 hPa | 0 mm | - | - | - |
| 1777532231 | 11.11° C | 30% | 1017 hPa | 0 mm | - | - | - |
| 1777531926 | 11.11° C | 30% | 1017 hPa | 0 mm | - | - | - |
| 1777531326 | 10.56° C | 31% | 1017 hPa | 0 mm | - | - | - |
| 1777531009 | 10.56° C | 31% | 1016.9 hPa | 0 mm | - | - | - |
| 1777530777 | 11.11° C | 31% | 1016.9 hPa | 0 mm | - | - | - |
| 1777530726 | 10.56° C | 31% | 1016.9 hPa | 0 mm | - | - | - |
| 1777530501 | 11.11° C | 31% | 1016.9 hPa | 0 mm | - | - | - |
| 1777530426 | 11.11° C | 31% | 1016.9 hPa | 0 mm | - | - | - |
| 1777530126 | 11.11° C | 31% | 1016.9 hPa | 0 mm | - | - | - |
| 1777529838 | 11.11° C | 30% | 1016.8 hPa | 0 mm | - | - | - |
| 1777529526 | 11.11° C | 30% | 1016.8 hPa | 0 mm | - | - | - |
| 1777529424 | 11.11° C | 31% | 1016.7 hPa | 0 mm | - | - | - |
| 1777529227 | 11.11° C | 31% | 1016.7 hPa | 0 mm | - | - | - |
* Rain latest hour (hover to see other rain measurements)
** Current wind speed in m/s (hover to see current wind gust speed)